Tracking 19245 objects as of 22-Aug-2018
HD Live streaming from Space Station
objects crossing your sky now

RADUGA 1-5

Track RADUGA 1-5 now!
RADUGA 1-5 is classified as:


NORAD ID: 26477
Int'l Code: 2000-049A
Perigee: 35,762.8 km
Apogee: 35,786.7 km
Inclination: 12.2 °
Period: 1,435.1 minutes
Semi major axis: 42145 km
RCS: 10 m2 (large)
Launch date: August 28, 2000
Source: Commonwealth of Independent States (former USSR) (CIS)
Launch site: TYURATAM MISSILE AND SPACE COMPLEX (TTMTR)

Military communication.
aabbcc
Your satellite tracking list
Your tracking list is empty




NASA's NSSDC Master Catalog

Two Line Element Set (TLE):
1 26477U 00049A   18232.95674983 -.00000082  00000-0  00000+0 0  9996
2 26477  12.1783  29.5655 0002834 305.7703  47.7750  1.00339687 65844
Source of the keplerian elements: AFSPC